Showing default

GHGSAT-C2, 47509

Orbit data source: Space-Track

GHGSAT-C2, 47509 is a payload satellite owned by GHG (CA) in SSO that was launched on Sun, 24 Jan 2021 UTC via an FALCON 9 launch vehicle from the Air Force Eastern Test Range (AFETR). Payload-class satellites include a variety of spacecraft equipped with specific instruments for various scientific and technological missions. These include communications satellites like Starlink; space stations such as the ISS; scientific satellites like the Hubble; Earth observation satellites from companies like Planet Labs, Umbra, and HawkEye 360; GPS; miniature CubeSats for education and research; and military/defense satellites.

Loading next visibility...
Identifier
47509, 2021-006DA
Orbit
SSO
Country
Flag of CACA
Related business
Manufacturer
UTIAS-SFL
Mission
Operational Commercial Earth Obs Sci
Bus & Motor
NEMO-V1, Unknown motor
Mass
15 kg wet, 15 kg dry
Launch date (UTC)
2021-01-24 (5 years ago)
Launch vehicle
FALCON 9
Launch site
Air Force Eastern Test Range (AFETR)
Object type
Payload
Rocket body
Debris
Shape & HBR
Box, 1.0 m
Radar Cross Section
0.100 m², Medium (>0.1 m² and < 1m²)

Expand to show TLE details & history
Last TLE update: 2 days ago

TLE from 2 days ago
0 GHGSAT-C2
1 47509U 21006DA  26171.07765555  .00005128  00000-0  14008-3 0  9993
2 47509  97.2142 218.2904 0006226 143.4059 216.7613 15.37823795300290
Epoch: 2026-06-20T01:51Z
TLE epoch observation values (Epoch: 2026-06-20T01:51:49.439Z)
Latitude
0.00001°
Longitude
-77.96305°
Altitude
459.075 km
Speed
7.635 km/s
True Right ascension
14h 33m 09s
True Declination
0° 00' 00"
Sunlit
Object was in full shadow at epoch
Visualization orbit readout
Latitude
Unknown
Longitude
Unknown
Altitude
Unknown
Speed
Unknown
Apparent Right ascension
Unknown
Apparent Declination
Unknown
Sunlit
N/A
Visualization observer readout
Local Sidereal Time
21:43:03
Azimuth
Unknown
Elevation
Unknown
Doppler factor
Unknown
Orbital elements
Apogee altitude
453.731 km
Perigee altitude
445.229 km
Semi-major axis
6,827.617 km
Eccentricity
0.00062
Inclination
97.2142°
RAAN
218.2904°
Arg. of periapsis
143.4059°
True anomaly
216.71863°
Mean anomaly
216.7613°
Eccentric anomaly
216.73996°
Mean motion
3.84715 °/min
Orbital period
93.58 mins
BSTAR
0.00014008
Loading maneuver chart data...
Computing Atmospheric mass density...

Documentation

Showing up to 5 results
|